Погода во Франкфурте-на-Майне

Германия     50°06′21″N   8°40′46″E
темп.,
°C
ветер,
м/с
пор.,
м/с
влажн.,
%
обл.,
%
осадки,
мм/ч
давл.,
гПа
погр.,
м
20 апреля, вт
вт2023:00+8вюв228659 0.0 101964
02:00+6вюв11905 0.0 101911
05:00+5всв11935 0.0 101816
08:00+6всв11865 0.0 1019123
11:00+13ссв01595 0.0 1018680
14:00+17сз114120 0.0 10161572
17:00+17юз113722 0.0 10151863
20:00+14ююв025027 0.0 101545
21 апреля, ср
ср2123:00+11вюв116489 0.0 101634
02:00+10юв116937 0.0 101611
05:00+8в017886 0.0 101615
08:00+9св0175100 0.0 1016101
11:00+11юз0167100 0.0 1016300
14:00+17с124325 0.0 10151524
17:00+15с234794 0.0 10141009
20:00+14с365494 0.2 1015463
22 апреля, чт
чт2223:00+9ссв4107198 0.0 1018707
02:00+7ссв476542 0.0 1019642
05:00+4ссв4865100 0.0 1020592
08:00+4с3659100 0.0 1022709
11:00+8с354252 0.0 10221375
14:00+12сз3630100 0.0 10202395
17:00+12ссз5632100 0.0 10202268
20:00+9сз46515 0.0 10221233
23 апреля, пт
пт2323:00+7сз27625 0.0 1023535
02:00+5ссв26705 0.0 1025312
05:00+3ссв24755 0.0 1025172
08:00+4ссв24706 0.0 1027461
11:00+8ссв23464 0.0 10271072
14:00+12ссв23342 0.0 10261543
17:00+13ссв33321 0.0 10251731
20:00+11ссв23420 0.0 1025102
24 апреля, сб
сб2423:00+8вюв11540 0.0 102625
02:00+6св23614 0.0 102678
05:00+4св23665 0.0 102695
08:00+6св236249 0.0 1026192
11:00+12ссв234612 0.0 1025832
14:00+15ссв3332100 0.0 10231388
17:00+16ссв4534100 0.0 10231362
20:00+13св365245 0.0 1023501